TimeCST,TemperatureF,Dew PointF,Humidity,Sea Level PressureIn,VisibilityMPH,Wind Direction,Wind SpeedMPH,Gust SpeedMPH,PrecipitationIn,Events,Conditions,WindDirDegrees,DateUTC
12:53 AM,24.1,12.9,62,30.09,10.0,SW,6.9,-,N/A,,Clear,230,2014-02-27 06:53:00
1:53 AM,23.0,12.9,65,30.09,10.0,WSW,4.6,-,N/A,,Clear,240,2014-02-27 07:53:00
2:53 AM,21.9,12.0,66,30.08,10.0,WSW,4.6,-,N/A,,Clear,250,2014-02-27 08:53:00
3:53 AM,19.9,15.1,81,30.07,10.0,SW,5.8,-,N/A,,Clear,220,2014-02-27 09:53:00
4:53 AM,21.9,14.0,72,30.07,10.0,SW,5.8,-,N/A,,Clear,230,2014-02-27 10:53:00
5:53 AM,21.9,12.9,68,30.08,10.0,SW,5.8,-,N/A,,Clear,230,2014-02-27 11:53:00
6:53 AM,23.0,12.0,63,30.10,10.0,WSW,5.8,-,N/A,,Clear,250,2014-02-27 12:53:00
7:53 AM,28.0,12.9,53,30.12,10.0,West,5.8,-,N/A,,Clear,280,2014-02-27 13:53:00
8:53 AM,32.0,12.9,45,30.14,10.0,NW,12.7,-,N/A,,Clear,320,2014-02-27 14:53:00
9:53 AM,37.0,15.1,41,30.15,10.0,North,10.4,-,N/A,,Clear,360,2014-02-27 15:53:00
10:53 AM,41.0,12.9,32,30.14,10.0,NNW,11.5,16.1,N/A,,Clear,340,2014-02-27 16:53:00
11:53 AM,42.1,12.9,31,30.13,10.0,North,10.4,-,N/A,,Clear,360,2014-02-27 17:53:00
12:53 PM,42.1,12.0,29,30.11,10.0,NNE,10.4,-,N/A,,Clear,20,2014-02-27 18:53:00
1:53 PM,44.1,15.1,31,30.10,10.0,NNE,9.2,16.1,N/A,,Clear,20,2014-02-27 19:53:00
2:53 PM,42.1,14.0,32,30.08,10.0,Variable,5.8,-,N/A,,Clear,0,2014-02-27 20:53:00
3:53 PM,42.1,15.1,34,30.07,10.0,NNE,8.1,-,N/A,,Clear,30,2014-02-27 21:53:00
4:53 PM,41.0,16.0,36,30.06,10.0,NNE,9.2,-,N/A,,Clear,30,2014-02-27 22:53:00
5:53 PM,35.1,17.1,48,30.07,10.0,ENE,4.6,-,N/A,,Clear,60,2014-02-27 23:53:00
6:53 PM,32.0,16.0,52,30.09,10.0,ENE,4.6,-,N/A,,Clear,60,2014-02-28 00:53:00
7:53 PM,30.0,18.0,61,30.09,10.0,East,5.8,-,N/A,,Clear,90,2014-02-28 01:53:00
8:53 PM,30.0,18.0,61,30.08,10.0,ENE,6.9,-,N/A,,Clear,70,2014-02-28 02:53:00
9:53 PM,28.9,18.0,64,30.09,10.0,ENE,9.2,-,N/A,,Clear,60,2014-02-28 03:53:00
10:53 PM,28.9,17.1,61,30.09,10.0,ENE,6.9,-,N/A,,Clear,70,2014-02-28 04:53:00
11:53 PM,28.0,14.0,56,30.08,10.0,East,11.5,-,N/A,,Clear,90,2014-02-28 05:53:00